Date,TemperatureHighF,TemperatureAvgF,TemperatureLowF,DewpointHighF,DewpointAvgF,DewpointLowF,HumidityHigh,HumidityAvg,HumidityLow,PressureMaxIn,PressureMinIn,WindSpeedMaxMPH,WindSpeedAvgMPH,GustSpeedMaxMPH,PrecipitationSumIn
2013-1-1,32,19,-5,-100,-100,-100,0,0,100,0.00,40.00,0,-999,0,0.00
2013-1-2,16,6,-6,-100,-100,-100,0,0,100,0.00,40.00,0,-999,0,0.00
2013-1-3,15,1,-15,-100,-100,-100,0,0,100,0.00,40.00,0,-999,0,0.00
2013-1-4,34,27,15,-100,-100,-100,0,0,100,0.00,40.00,0,-999,0,0.00
2013-1-5,34,25,8,-100,-100,-100,0,0,100,0.00,40.00,0,-999,0,0.00
2013-1-6,34,26,9,-100,-100,-100,0,0,100,0.00,40.00,0,-999,0,0.00
2013-1-7,26,19,9,-100,-100,-100,0,0,100,0.00,40.00,0,-999,0,0.00
2013-1-8,37,26,13,-100,-100,-100,0,0,100,0.00,40.00,0,-999,0,0.00
2013-1-9,41,24,6,-100,-100,-100,0,0,100,0.00,40.00,0,-999,0,0.02
2013-1-10,41,37,23,-100,-100,-100,0,0,100,0.00,40.00,0,-999,0,0.05
2013-1-11,37,28,17,-100,-100,-100,0,0,100,0.00,40.00,0,-999,0,0.00
2013-1-12,43,39,35,-100,-100,-100,0,0,100,0.00,40.00,0,-999,0,0.00
2013-1-13,45,41,36,-100,-100,-100,0,0,100,0.00,40.00,0,-999,0,0.00
2013-1-14,44,37,26,-100,-100,-100,0,0,100,0.00,40.00,0,-999,0,0.00
2013-1-15,33,29,26,-100,-100,-100,0,0,100,0.00,40.00,0,-999,0,0.00
2013-1-16,31,29,27,-100,-100,-100,0,0,100,0.00,40.00,0,-999,0,0.00
2013-1-17,31,23,10,-100,-100,-100,0,0,100,0.00,40.00,0,-999,0,0.00
2013-1-18,20,11,-1,-100,-100,-100,0,0,100,0.00,40.00,0,-999,0,0.00
2013-1-19,39,30,20,-100,-100,-100,0,0,100,0.00,40.00,0,-999,0,0.00
2013-1-20,40,34,19,-100,-100,-100,0,0,100,0.00,40.00,0,-999,0,0.00
2013-1-21,21,15,8,-100,-100,-100,0,0,100,0.00,40.00,0,-999,0,0.00
2013-1-22,16,10,5,-100,-100,-100,0,0,100,0.00,40.00,0,-999,0,0.00
2013-1-23,8,-1,-9,-100,-100,-100,0,0,100,0.00,40.00,0,-999,0,0.00
2013-1-24,11,-1,-14,-100,-100,-100,0,0,100,0.00,40.00,0,-999,0,0.00
2013-1-25,12,7,-1,-100,-100,-100,0,0,100,0.00,40.00,0,-999,0,0.00
2013-1-26,15,10,5,-100,-100,-100,0,0,100,0.00,40.00,0,-999,0,0.00
2013-1-27,19,12,3,-100,-100,-100,0,0,100,0.00,40.00,0,-999,0,0.00
2013-1-28,24,16,3,-100,-100,-100,0,0,100,0.00,40.00,0,-999,0,0.00
2013-1-29,34,28,24,-100,-100,-100,0,0,100,0.00,40.00,0,-999,0,0.00
2013-1-30,52,43,34,-100,-100,-100,0,0,100,0.00,40.00,0,-999,0,0.00
2013-1-31,51,35,25,-100,-100,-100,0,0,100,0.00,40.00,0,-999,0,0.00
2013-2-1,25,20,16,-100,-100,-100,0,0,100,0.00,40.00,0,-999,0,0.00
2013-2-2,22,17,9,-100,-100,-100,0,0,100,0.00,40.00,0,-999,0,0.00
2013-2-3,26,16,5,-100,-100,-100,0,0,100,0.00,40.00,0,-999,0,0.00
2013-2-4,26,18,11,-100,-100,-100,0,0,100,0.00,40.00,0,-999,0,0.00
2013-2-5,22,14,5,-100,-100,-100,0,0,100,0.00,40.00,0,-999,0,0.00
2013-2-6,31,23,13,-100,-100,-100,0,0,100,0.00,40.00,0,-999,0,0.00
2013-2-7,16,11,6,-100,-100,-100,0,0,100,0.00,40.00,0,-999,0,0.00
2013-2-8,28,18,12,-100,-100,-100,0,0,100,0.00,40.00,0,-999,0,0.00
2013-2-9,22,13,2,-100,-100,-100,0,0,100,0.00,40.00,0,-999,0,0.00
2013-2-10,24,6,-11,-100,-100,-100,0,0,100,0.00,40.00,0,-999,0,0.00
2013-2-11,38,30,4,-100,-100,-100,0,0,100,0.00,40.00,0,-999,0,0.00
2013-2-12,40,37,34,-100,-100,-100,0,0,100,0.00,40.00,0,-999,0,0.00
2013-2-13,37,32,27,-100,-100,-100,0,0,100,0.00,40.00,0,-999,0,0.00
2013-2-14,37,32,28,-100,-100,-100,0,0,100,0.00,40.00,0,-999,0,0.00
2013-2-15,43,37,31,-100,-100,-100,0,0,100,0.00,40.00,0,-999,0,0.00
2013-2-16,35,28,21,-100,-100,-100,0,0,100,0.00,40.00,0,-999,0,0.00
2013-2-17,21,15,13,-100,-100,-100,0,0,100,0.00,40.00,0,-999,0,0.00
2013-2-18,27,16,9,-100,-100,-100,0,0,100,0.00,40.00,0,-999,0,0.00
2013-2-19,44,29,12,-100,-100,-100,0,0,100,0.00,40.00,0,-999,0,0.00
2013-2-20,33,28,25,-100,-100,-100,0,0,100,0.00,40.00,0,-999,0,0.00
2013-2-21,25,19,12,-100,-100,-100,0,0,100,0.00,40.00,0,-999,0,0.00
2013-2-22,34,26,13,-100,-100,-100,0,0,100,0.00,40.00,0,-999,0,0.00
2013-2-23,37,34,29,-100,-100,-100,0,0,100,0.00,40.00,0,-999,0,0.00
2013-2-24,35,33,31,-100,-100,-100,0,0,100,0.00,40.00,0,-999,0,0.00
2013-2-25,36,33,31,-100,-100,-100,0,0,100,0.00,40.00,0,-999,0,0.00
2013-2-26,40,35,31,-100,-100,-100,0,0,100,0.00,40.00,0,-999,0,0.00
2013-2-27,38,37,35,-100,-100,-100,0,0,100,0.00,40.00,0,-999,0,0.00
2013-2-28,44,37,32,-100,-100,-100,0,0,100,0.00,40.00,0,-999,0,0.00
2013-3-1,36,34,32,-100,-100,-100,0,0,100,0.00,40.00,0,-999,0,0.00
2013-3-2,33,30,24,-100,-100,-100,0,0,100,0.00,40.00,0,-999,0,0.00
2013-3-3,31,27,23,-100,-100,-100,0,0,100,0.00,40.00,0,-999,0,0.00
2013-3-4,31,27,25,-100,-100,-100,0,0,100,0.00,40.00,0,-999,0,0.00
2013-3-5,34,29,25,-100,-100,-100,0,0,100,0.00,40.00,0,-999,0,0.00
2013-3-6,41,33,25,-100,-100,-100,0,0,100,0.00,40.00,0,-999,0,0.00
2013-3-7,36,34,31,-100,-100,-100,0,0,100,0.00,40.00,0,-999,0,0.00
2013-3-8,38,32,29,-100,-100,-100,0,0,100,0.00,40.00,0,-999,0,0.00
2013-3-9,47,33,23,-100,-100,-100,0,0,100,0.00,40.00,0,-999,0,0.00
2013-3-10,55,39,22,-100,-100,-100,0,0,100,0.00,40.00,0,-999,0,0.00
2013-3-11,50,46,41,-100,-100,-100,0,0,100,0.00,40.00,0,-999,0,0.00
2013-3-12,52,46,37,-100,-100,-100,0,0,100,0.00,40.00,0,-999,0,0.00
2013-3-13,40,36,29,-100,-100,-100,0,0,100,0.00,40.00,0,-999,0,0.00
2013-3-14,32,27,20,-100,-100,-100,0,0,100,0.00,40.00,0,-999,0,0.00
2013-3-15,35,25,15,-100,-100,-100,0,0,100,0.00,40.00,0,-999,0,0.00
2013-3-16,28,24,18,-100,-100,-100,0,0,100,0.00,40.00,0,-999,0,0.00
2013-3-17,27,20,10,-100,-100,-100,0,0,100,0.00,40.00,0,-999,0,0.00
2013-3-18,33,22,7,-100,-100,-100,0,0,100,0.00,40.00,0,-999,0,0.00
2013-3-19,34,31,28,-100,-100,-100,0,0,100,0.00,40.00,0,-999,0,0.00
2013-3-20,36,30,24,-100,-100,-100,0,0,100,0.00,40.00,0,-999,0,0.00
2013-3-21,36,29,21,-100,-100,-100,0,0,100,0.00,40.00,0,-999,0,0.00
2013-3-22,36,27,16,-100,-100,-100,0,0,100,0.00,40.00,0,-999,0,0.00
2013-3-23,39,33,27,-100,-100,-100,0,0,100,0.00,40.00,0,-999,0,0.00
2013-3-24,41,36,25,-100,-100,-100,0,0,100,0.00,40.00,0,-999,0,0.00
2013-3-25,42,33,23,-100,-100,-100,0,0,100,0.00,40.00,0,-999,0,0.00
2013-3-26,45,37,28,-100,-100,-100,0,0,100,0.00,40.00,0,-999,0,0.00
2013-3-27,49,39,27,-100,-100,-100,0,0,100,0.00,40.00,0,-999,0,0.00
2013-3-28,50,40,35,-100,-100,-100,0,0,100,0.00,40.00,0,-999,0,0.00
2013-3-29,48,40,31,-100,-100,-100,0,0,100,0.00,40.00,0,-999,0,0.00
2013-3-30,52,39,25,-100,-100,-100,0,0,100,0.00,40.00,0,-999,0,0.00
2013-3-31,58,41,22,-100,-100,-100,0,0,100,0.00,40.00,0,-999,0,0.00
2013-4-1,48,41,32,-100,-100,-100,0,0,100,0.00,40.00,0,-999,0,0.00
2013-4-2,35,30,23,-100,-100,-100,0,0,100,0.00,40.00,0,-999,0,0.00
2013-4-3,41,34,26,-100,-100,-100,0,0,100,0.00,40.00,0,-999,0,0.00
2013-4-4,53,39,19,-100,-100,-100,0,0,100,0.00,40.00,0,-999,0,0.00
2013-4-5,49,42,34,-100,-100,-100,0,0,100,0.00,40.00,0,-999,0,0.00
2013-4-6,42,33,26,-100,-100,-100,0,0,100,0.00,40.00,0,-999,0,0.00
2013-4-7,59,46,29,-100,-100,-100,0,0,100,0.00,40.00,0,-999,0,0.00
2013-4-8,57,48,43,-100,-100,-100,0,0,100,0.00,40.00,0,-999,0,0.00
2013-4-9,56,48,42,-100,-100,-100,0,0,100,0.00,40.00,0,-999,0,0.00
2013-4-10,49,46,42,-100,-100,-100,0,0,100,0.00,40.00,0,-999,0,0.00
2013-4-11,42,37,34,-100,-100,-100,0,0,100,0.00,40.00,0,-999,0,0.00
2013-4-12,36,34,33,-100,-100,-100,0,0,100,0.00,40.00,0,-999,0,0.00
2013-4-13,52,42,35,-100,-100,-100,0,0,100,0.00,40.00,0,-999,0,0.00
2013-4-14,45,40,31,-100,-100,-100,0,0,100,0.00,40.00,0,-999,0,0.00
2013-4-15,61,43,25,-100,-100,-100,0,0,100,0.00,40.00,0,-999,0,0.00
2013-4-16,58,54,46,-100,-100,-100,0,0,100,0.00,40.00,0,-999,0,0.00
2013-4-17,58,49,37,-100,-100,-100,0,0,100,0.00,40.00,0,-999,0,0.00
2013-4-18,65,49,31,-100,-100,-100,0,0,100,0.00,40.00,0,-999,0,0.00
2013-4-19,76,65,47,-100,-100,-100,0,0,100,0.00,40.00,0,-999,0,0.00
2013-4-20,52,45,37,-100,-100,-100,0,0,100,0.00,40.00,0,-999,0,0.00
2013-4-21,48,38,30,-100,-100,-100,0,0,100,0.00,40.00,0,-999,0,0.00
2013-4-22,59,42,24,-100,-100,-100,0,0,100,0.00,40.00,0,-999,0,0.00
2013-4-23,55,45,32,-100,-100,-100,0,0,100,0.00,40.00,0,-999,0,0.00
2013-4-24,74,54,33,-100,-100,-100,0,0,100,0.00,40.00,0,-999,0,0.00
2013-4-25,59,49,36,-100,-100,-100,0,0,100,0.00,40.00,0,-999,0,0.00
2013-4-26,56,43,30,-100,-100,-100,0,0,100,0.00,40.00,0,-999,0,0.00
2013-4-27,64,46,29,-100,-100,-100,0,0,100,0.00,40.00,0,-999,0,0.00
2013-4-28,75,53,31,-100,-100,-100,0,0,100,0.00,40.00,0,-999,0,0.00
2013-4-29,68,59,51,-100,-100,-100,0,0,100,0.00,40.00,0,-999,0,0.00
2013-4-30,75,62,52,-100,-100,-100,0,0,100,0.00,40.00,0,-999,0,0.00
2013-5-1,81,63,48,-100,-100,-100,0,0,100,0.00,40.00,0,-999,0,0.00
2013-5-2,83,67,49,-100,-100,-100,0,0,100,0.00,40.00,0,-999,0,0.00
2013-5-3,75,62,49,-100,-100,-100,0,0,100,0.00,40.00,0,-999,0,0.00
2013-5-4,79,61,42,-100,-100,-100,0,0,100,0.00,40.00,0,-999,0,0.00
2013-5-5,81,64,48,-100,-100,-100,0,0,100,0.00,40.00,0,-999,0,0.00
2013-5-6,81,64,51,-100,-100,-100,0,0,100,0.00,40.00,0,-999,0,0.00
2013-5-7,85,66,48,-100,-100,-100,0,0,100,0.00,40.00,0,-999,0,0.00
2013-5-8,80,64,50,-100,-100,-100,0,0,100,0.00,40.00,0,-999,0,0.00
2013-5-9,74,65,55,-100,-100,-100,0,0,100,0.00,40.00,0,-999,0,0.00
2013-5-10,73,62,53,-100,-100,-100,0,0,100,0.00,40.00,0,-999,0,0.00
2013-5-11,71,64,57,-100,-100,-100,0,0,100,0.00,40.00,0,-999,0,0.00
2013-5-12,61,54,41,-100,-100,-100,0,0,100,0.00,40.00,0,-999,0,0.00
2013-5-13,52,47,41,-100,-100,-100,0,0,100,0.00,40.00,0,-999,0,0.00
2013-5-14,59,46,32,-100,-100,-100,0,0,100,0.00,40.00,0,-999,0,0.00
2013-5-15,66,46,30,-100,-100,-100,0,0,100,0.00,40.00,0,-999,0,0.05
2013-5-16,77,58,42,-100,-100,-100,0,0,100,0.00,40.00,0,-999,0,0.01
2013-5-17,67,56,44,-100,-100,-100,0,0,100,0.00,40.00,0,-999,0,0.00
2013-5-18,75,57,36,-100,-100,-100,0,0,100,0.00,40.00,0,-999,0,0.00
2013-5-19,69,59,51,-100,-100,-100,0,0,100,0.00,40.00,0,-999,0,0.15
2013-5-20,74,63,57,-100,-100,-100,0,0,100,0.00,40.00,0,-999,0,0.17
2013-5-21,73,63,57,-100,-100,-100,0,0,100,0.00,40.00,0,-999,0,0.53
2013-5-22,80,69,59,-100,-100,-100,0,0,100,0.00,40.00,0,-999,0,0.52
2013-5-23,80,72,63,-100,-100,-100,0,0,100,0.00,40.00,0,-999,0,0.55
2013-5-24,63,50,45,-100,-100,-100,0,0,100,0.00,40.00,0,-999,0,0.85
2013-5-25,45,43,41,-100,-100,-100,0,0,100,0.00,40.00,0,-999,0,1.00
2013-5-26,49,44,39,-100,-100,-100,0,0,100,0.00,40.00,0,-999,0,0.60
2013-5-27,69,52,35,-100,-100,-100,0,0,100,0.00,40.00,0,-999,0,0.03
2013-5-28,75,57,37,-100,-100,-100,0,0,100,0.00,40.00,0,-999,0,0.00
2013-5-29,67,62,56,-100,-100,-100,0,0,100,0.00,40.00,0,-999,0,0.24
2013-5-30,89,73,59,-100,-100,-100,0,0,100,0.00,40.00,0,-999,0,0.02
2013-5-31,93,76,58,-100,-100,-100,0,0,100,0.00,40.00,0,-999,0,0.00
2013-6-1,90,77,65,-100,-100,-100,0,0,100,0.00,40.00,0,-999,0,0.00
2013-6-2,88,73,64,-100,-100,-100,0,0,100,0.00,40.00,0,-999,0,0.86
2013-6-3,74,66,51,-100,-100,-100,0,0,100,0.00,40.00,0,-999,0,0.07
2013-6-4,68,56,45,-100,-100,-100,0,0,100,0.00,40.00,0,-999,0,0.00
2013-6-5,71,59,45,-100,-100,-100,0,0,100,0.00,40.00,0,-999,0,0.00
2013-6-6,69,59,53,-100,-100,-100,0,0,100,0.00,40.00,0,-999,0,0.02
2013-6-7,57,55,53,-100,-100,-100,0,0,100,0.00,40.00,0,-999,0,0.34
2013-6-8,62,58,54,-100,-100,-100,0,0,100,0.00,40.00,0,-999,0,0.20
2013-6-9,78,65,56,-100,-100,-100,0,0,100,0.00,40.00,0,-999,0,0.01
2013-6-10,75,62,50,-100,-100,-100,0,0,100,0.00,40.00,0,-999,0,0.17
2013-6-11,61,59,57,-100,-100,-100,0,0,100,0.00,40.00,0,-999,0,0.91
2013-6-12,71,60,54,-100,-100,-100,0,0,100,0.00,40.00,0,-999,0,0.35
2013-6-13,67,60,52,-100,-100,-100,0,0,100,0.00,40.00,0,-999,0,0.01
2013-6-14,77,64,53,-100,-100,-100,0,0,100,0.00,40.00,0,-999,0,0.00
2013-6-15,78,63,45,-100,-100,-100,0,0,100,0.00,40.00,0,-999,0,0.00
2013-6-16,70,61,51,-100,-100,-100,0,0,100,0.00,40.00,0,-999,0,0.13
2013-6-17,79,64,52,-100,-100,-100,0,0,100,0.00,40.00,0,-999,0,0.22
2013-6-18,72,61,52,-100,-100,-100,0,0,100,0.00,40.00,0,-999,0,0.02
2013-6-19,71,58,44,-100,-100,-100,0,0,100,0.00,40.00,0,-999,0,0.01
2013-6-20,77,58,42,-100,-100,-100,0,0,100,0.00,40.00,0,-999,0,0.00
2013-6-22,83,74,67,-100,-100,-100,0,0,100,0.00,40.00,0,-999,0,0.28
2013-6-23,87,74,67,-100,-100,-100,0,0,100,0.00,40.00,0,-999,0,0.97
2013-6-24,91,76,69,-100,-100,-100,0,0,100,0.00,40.00,0,-999,0,0.52
2013-6-25,88,73,66,-100,-100,-100,0,0,100,0.00,40.00,0,-999,0,0.96
2013-6-26,76,70,66,-100,-100,-100,0,0,100,0.00,40.00,0,-999,0,0.78
2013-6-27,88,75,66,-100,-100,-100,0,0,100,0.00,40.00,0,-999,0,0.02
2013-6-28,77,68,62,-100,-100,-100,0,0,100,0.00,40.00,0,-999,0,0.80
2013-6-29,82,69,62,-100,-100,-100,0,0,100,0.00,40.00,0,-999,0,0.45
2013-6-30,86,73,62,-100,-100,-100,0,0,100,0.00,40.00,0,-999,0,0.15
2013-7-1,72,68,63,-100,-100,-100,0,0,100,0.00,40.00,0,-999,0,0.33
2013-7-2,80,67,60,-100,-100,-100,0,0,100,0.00,40.00,0,-999,0,0.41
2013-7-3,88,77,68,-100,-100,-100,0,0,100,0.00,40.00,0,-999,0,0.49
2013-7-4,88,78,71,-100,-100,-100,0,0,100,0.00,40.00,0,-999,0,0.33
2013-7-5,87,76,68,-100,-100,-100,0,0,100,0.00,40.00,0,-999,0,0.53
2013-7-6,88,77,69,-100,-100,-100,0,0,100,0.00,40.00,0,-999,0,0.03
2013-7-7,88,75,65,-100,-100,-100,0,0,100,0.00,40.00,0,-999,0,0.22
2013-7-8,83,74,69,-100,-100,-100,0,0,100,0.00,40.00,0,-999,0,0.23
2013-7-9,87,76,67,-100,-100,-100,0,0,100,0.00,40.00,0,-999,0,0.01
2013-7-10,82,76,71,-100,-100,-100,0,0,100,0.00,40.00,0,-999,0,0.20
2013-7-11,81,75,63,-100,-100,-100,0,0,100,0.00,40.00,0,-999,0,0.26
2013-7-12,80,69,59,-100,-100,-100,0,0,100,0.00,40.00,0,-999,0,0.24
2013-7-13,84,72,60,-100,-100,-100,0,0,100,0.00,40.00,0,-999,0,0.00
2013-7-14,91,78,70,-100,-100,-100,0,0,100,0.00,40.00,0,-999,0,0.00
2013-7-15,96,80,68,-100,-100,-100,0,0,100,0.00,40.00,0,-999,0,0.00
2013-7-16,92,81,67,-100,-100,-100,0,0,100,0.00,40.00,0,-999,0,0.00
2013-7-17,97,82,68,-100,-100,-100,0,0,100,0.00,40.00,0,-999,0,0.00
2013-7-18,95,81,72,-100,-100,-100,0,0,100,0.00,40.00,0,-999,0,0.23
2013-7-19,98,84,74,-100,-100,-100,0,0,100,0.00,40.00,0,-999,0,0.01
2013-7-20,87,78,69,-100,-100,-100,0,0,100,0.00,40.00,0,-999,0,0.13
2013-7-21,80,70,61,-100,-100,-100,0,0,100,0.00,40.00,0,-999,0,0.01
2013-7-22,86,70,56,-100,-100,-100,0,0,100,0.00,40.00,0,-999,0,0.03
2013-7-23,83,73,69,-100,-100,-100,0,0,100,0.00,40.00,0,-999,0,1.02
2013-7-24,70,66,57,-100,-100,-100,0,0,100,0.00,40.00,0,-999,0,0.12
2013-7-25,72,60,47,-100,-100,-100,0,0,100,0.00,40.00,0,-999,0,0.06
2013-7-26,76,64,54,-100,-100,-100,0,0,100,0.00,40.00,0,-999,0,0.00
2013-7-27,85,69,52,-100,-100,-100,0,0,100,0.00,40.00,0,-999,0,0.00
2013-7-28,81,72,63,-100,-100,-100,0,0,100,0.00,40.00,0,-999,0,0.00
2013-7-29,84,73,67,-100,-100,-100,0,0,100,0.00,40.00,0,-999,0,0.09
2013-7-30,78,69,60,-100,-100,-100,0,0,100,0.00,40.00,0,-999,0,0.00
2013-7-31,83,70,56,-100,-100,-100,0,0,100,0.00,40.00,0,-999,0,0.00
2013-8-1,81,68,58,-100,-100,-100,0,0,100,0.00,40.00,0,-999,0,0.20
2013-8-2,82,71,61,-100,-100,-100,0,0,100,0.00,40.00,0,-999,0,0.05
2013-8-3,78,68,61,-100,-100,-100,0,0,100,0.00,40.00,0,-999,0,0.28
2013-8-4,73,65,57,-100,-100,-100,0,0,100,0.00,40.00,0,-999,0,0.01
2013-8-5,75,63,50,-100,-100,-100,0,0,100,0.00,40.00,0,-999,0,0.01
2013-8-6,79,63,49,-100,-100,-100,0,0,100,0.00,40.00,0,-999,0,0.00
2013-8-7,82,69,55,-100,-100,-100,0,0,100,0.00,40.00,0,-999,0,0.00
2013-8-8,85,76,71,-100,-100,-100,0,0,100,0.00,40.00,0,-999,0,0.00
2013-8-9,79,74,71,-100,-100,-100,0,0,100,0.00,40.00,0,-999,0,0.20
2013-8-10,77,69,57,-100,-100,-100,0,0,100,0.00,40.00,0,-999,0,0.01
2013-8-11,78,66,53,-100,-100,-100,0,0,100,0.00,40.00,0,-999,0,0.00
2013-8-12,81,67,54,-100,-100,-100,0,0,100,0.00,40.00,0,-999,0,0.00
2013-8-13,74,66,61,-100,-100,-100,0,0,100,0.00,40.00,0,-999,0,0.12
2013-8-14,68,61,52,-100,-100,-100,0,0,100,0.00,40.00,0,-999,0,0.04
2013-8-15,77,60,46,-100,-100,-100,0,0,100,0.00,40.00,0,-999,0,0.00
2013-8-16,79,64,49,-100,-100,-100,0,0,100,0.00,40.00,0,-999,0,1.91
2013-8-17,79,66,54,-100,-100,-100,0,0,100,0.00,40.00,0,-999,0,1.09
2013-8-18,79,66,54,-100,-100,-100,0,0,100,0.00,40.00,0,-999,0,0.00
2013-8-19,85,68,53,-100,-100,-100,0,0,100,0.00,40.00,0,-999,0,0.00
2013-8-20,86,71,56,-100,-100,-100,0,0,100,0.00,40.00,0,-999,0,0.00
2013-8-21,88,74,59,-100,-100,-100,0,0,100,0.00,40.00,0,-999,0,0.00
2013-8-22,89,74,63,-100,-100,-100,0,0,100,0.00,40.00,0,-999,0,0.30
2013-8-23,72,65,54,-100,-100,-100,0,0,100,0.00,40.00,0,-999,0,0.05
2013-8-24,78,62,45,-100,-100,-100,0,0,100,0.00,40.00,0,-999,0,0.00
2013-8-25,79,64,47,-100,-100,-100,0,0,100,0.00,40.00,0,-999,0,0.03
2013-8-26,75,70,65,-100,-100,-100,0,0,100,0.00,40.00,0,-999,0,0.75
2013-8-27,80,71,68,-100,-100,-100,0,0,100,0.00,40.00,0,-999,0,0.83
2013-8-28,86,80,70,-100,-100,-100,0,0,100,0.00,40.00,0,-999,0,0.00
2013-8-29,81,72,64,-100,-100,-100,0,0,100,0.00,40.00,0,-999,0,0.00
2013-8-30,86,74,63,-100,-100,-100,0,0,100,0.00,40.00,0,-999,0,0.00
2013-8-31,76,73,70,-100,-100,-100,0,0,100,0.00,40.00,0,-999,0,0.62
2013-9-1,84,74,69,-100,-100,-100,0,0,100,0.00,40.00,0,-999,0,0.30
2013-9-2,81,72,65,-100,-100,-100,0,0,100,0.00,40.00,0,-999,0,0.41
2013-9-3,77,68,61,-100,-100,-100,0,0,100,0.00,40.00,0,-999,0,0.34
2013-9-4,78,67,57,-100,-100,-100,0,0,100,0.00,40.00,0,-999,0,0.00
2013-9-5,66,59,45,-100,-100,-100,0,0,100,0.00,40.00,0,-999,0,0.04
2013-9-6,68,54,39,-100,-100,-100,0,0,100,0.00,40.00,0,-999,0,0.00
2013-9-7,68,62,55,-100,-100,-100,0,0,100,0.00,40.00,0,-999,0,0.00
2013-9-8,64,58,44,-100,-100,-100,0,0,100,0.00,40.00,0,-999,0,0.12
2013-9-9,68,54,38,-100,-100,-100,0,0,100,0.00,40.00,0,-999,0,0.09
2013-9-10,75,66,57,-100,-100,-100,0,0,100,0.00,40.00,0,-999,0,0.90
2013-9-11,92,78,70,-100,-100,-100,0,0,100,0.00,40.00,0,-999,0,0.15
2013-9-12,81,73,69,-100,-100,-100,0,0,100,0.00,40.00,0,-999,0,0.16
2013-9-13,69,61,54,-100,-100,-100,0,0,100,0.00,40.00,0,-999,0,0.60
2013-9-14,63,56,46,-100,-100,-100,0,0,100,0.00,40.00,0,-999,0,0.01
2013-9-15,68,53,41,-100,-100,-100,0,0,100,0.00,40.00,0,-999,0,0.00
2013-9-16,57,52,40,-100,-100,-100,0,0,100,0.00,40.00,0,-999,0,0.09
2013-9-17,62,47,33,-100,-100,-100,0,0,100,0.00,40.00,0,-999,0,0.01
2013-9-18,50,40,37,-100,-100,-100,0,0,100,0.00,40.00,0,-999,0,0.00
2013-9-19,74,58,41,-100,-100,-100,0,0,100,0.00,40.00,0,-999,0,0.00
2013-9-20,79,61,46,-100,-100,-100,0,0,100,0.00,40.00,0,-999,0,0.00
2013-9-21,77,67,58,-100,-100,-100,0,0,100,0.00,40.00,0,-999,0,0.07
2013-9-22,65,58,50,-100,-100,-100,0,0,100,0.00,40.00,0,-999,0,0.72
2013-9-23,54,48,41,-100,-100,-100,0,0,100,0.00,40.00,0,-999,0,0.01
2013-9-24,63,53,46,-100,-100,-100,0,0,100,0.00,40.00,0,-999,0,0.00
2013-9-25,66,52,39,-100,-100,-100,0,0,100,0.00,40.00,0,-999,0,0.00
2013-9-26,62,52,38,-100,-100,-100,0,0,100,0.00,40.00,0,-999,0,0.00
2013-9-27,64,56,46,-100,-100,-100,0,0,100,0.00,40.00,0,-999,0,0.00
2013-9-28,70,54,42,-100,-100,-100,0,0,100,0.00,40.00,0,-999,0,0.00
2013-9-29,73,57,42,-100,-100,-100,0,0,100,0.00,40.00,0,-999,0,0.00
2013-9-30,71,58,42,-100,-100,-100,0,0,100,0.00,40.00,0,-999,0,0.00
2013-10-1,62,56,49,-100,-100,-100,0,0,100,0.00,40.00,0,-999,0,0.00
2013-10-2,77,64,51,-100,-100,-100,0,0,100,0.00,40.00,0,-999,0,0.00
2013-10-3,72,58,43,-100,-100,-100,0,0,100,0.00,40.00,0,-999,0,0.00
2013-10-4,62,55,43,-100,-100,-100,0,0,100,0.00,40.00,0,-999,0,0.00
2013-10-5,61,58,54,-100,-100,-100,0,0,100,0.00,40.00,0,-999,0,0.00
2013-10-6,60,56,55,-100,-100,-100,0,0,100,0.00,40.00,0,-999,0,0.23
2013-10-7,76,64,52,-100,-100,-100,0,0,100,0.00,40.00,0,-999,0,0.65
2013-10-8,59,51,39,-100,-100,-100,0,0,100,0.00,40.00,0,-999,0,0.07
2013-10-9,64,46,32,-100,-100,-100,0,0,100,0.00,40.00,0,-999,0,0.01
2013-10-10,65,51,35,-100,-100,-100,0,0,100,0.00,40.00,0,-999,0,0.00
2013-10-11,68,53,42,-100,-100,-100,0,0,100,0.00,40.00,0,-999,0,0.00
2013-10-12,73,54,37,-100,-100,-100,0,0,100,0.00,40.00,0,-999,0,0.00
2013-10-13,69,57,48,-100,-100,-100,0,0,100,0.00,40.00,0,-999,0,0.00
2013-10-14,58,55,52,-100,-100,-100,0,0,100,0.00,40.00,0,-999,0,0.03
2013-10-15,64,56,50,-100,-100,-100,0,0,100,0.00,40.00,0,-999,0,0.01
2013-10-16,66,60,50,-100,-100,-100,0,0,100,0.00,40.00,0,-999,0,0.02
2013-10-17,68,59,51,-100,-100,-100,0,0,100,0.00,40.00,0,-999,0,0.12
2013-10-18,63,55,47,-100,-100,-100,0,0,100,0.00,40.00,0,-999,0,0.74
2013-10-19,64,51,39,-100,-100,-100,0,0,100,0.00,40.00,0,-999,0,0.05
2013-10-20,57,51,38,-100,-100,-100,0,0,100,0.00,40.00,0,-999,0,0.06
2013-10-21,63,48,34,-100,-100,-100,0,0,100,0.00,40.00,0,-999,0,0.00
2013-10-22,57,51,37,-100,-100,-100,0,0,100,0.00,40.00,0,-999,0,0.10
2013-10-23,51,44,36,-100,-100,-100,0,0,100,0.00,40.00,0,-999,0,0.01
2013-10-24,47,40,30,-100,-100,-100,0,0,100,0.00,40.00,0,-999,0,0.04
2013-10-25,45,40,35,-100,-100,-100,0,0,100,0.00,40.00,0,-999,0,0.02
2013-10-26,49,42,31,-100,-100,-100,0,0,100,0.00,40.00,0,-999,0,0.01
2013-10-27,49,43,30,-100,-100,-100,0,0,100,0.00,40.00,0,-999,0,0.01
2013-10-28,46,38,26,-100,-100,-100,0,0,100,0.00,40.00,0,-999,0,0.02
2013-10-29,41,29,20,-100,-100,-100,0,0,100,0.00,40.00,0,-999,0,9.03
2013-10-30,47,36,27,-100,-100,-100,0,0,100,0.00,40.00,0,-999,0,0.00
2013-10-31,58,44,31,-100,-100,-100,0,0,100,0.00,40.00,0,-999,0,0.24
2013-11-1,67,61,56,-100,-100,-100,0,0,100,0.00,40.00,0,-999,0,0.49
2013-11-2,56,46,38,-100,-100,-100,0,0,100,0.00,40.00,0,-999,0,0.02
2013-11-3,39,33,23,-100,-100,-100,0,0,100,0.00,40.00,0,-999,0,0.01
2013-11-4,37,26,18,-100,-100,-100,0,0,100,0.00,40.00,0,-999,0,0.00
2013-11-5,48,38,23,-100,-100,-100,0,0,100,0.00,40.00,0,-999,0,0.00
2013-11-6,59,52,44,-100,-100,-100,0,0,100,0.00,40.00,0,-999,0,0.00
2013-11-7,56,48,32,-100,-100,-100,0,0,100,0.00,40.00,0,-999,0,0.18
2013-11-8,41,35,29,-100,-100,-100,0,0,100,0.00,40.00,0,-999,0,0.01
2013-11-9,42,37,27,-100,-100,-100,0,0,100,0.00,40.00,0,-999,0,0.01
2013-11-10,46,42,38,-100,-100,-100,0,0,100,0.00,40.00,0,-999,0,0.03
2013-11-11,45,40,31,-100,-100,-100,0,0,100,0.00,40.00,0,-999,0,0.01
2013-11-12,43,30,25,-100,-100,-100,0,0,100,0.00,40.00,0,-999,0,0.00
2013-11-13,32,27,21,-100,-100,-100,0,0,100,0.00,40.00,0,-999,0,0.00
2013-11-14,45,37,30,-100,-100,-100,0,0,100,0.00,40.00,0,-999,0,0.00
2013-11-15,53,43,37,-100,-100,-100,0,0,100,0.00,40.00,0,-999,0,0.00
2013-11-16,56,44,36,-100,-100,-100,0,0,100,0.00,40.00,0,-999,0,0.00
2013-11-17,61,52,37,-100,-100,-100,0,0,100,0.00,40.00,0,-999,0,0.00
2013-11-18,63,54,42,-100,-100,-100,0,0,100,0.00,40.00,0,-999,0,0.28
2013-11-19,43,35,30,-100,-100,-100,0,0,100,0.00,40.00,0,-999,0,0.03
2013-11-20,35,28,19,-100,-100,-100,0,0,100,0.00,40.00,0,-999,0,0.00
2013-11-21,42,29,16,-100,-100,-100,0,0,100,0.00,40.00,0,-999,0,0.00
2013-11-22,44,41,37,-100,-100,-100,0,0,100,0.00,40.00,0,-999,0,0.11
2013-11-23,43,34,24,-100,-100,-100,0,0,100,0.00,40.00,0,-999,0,0.02
2013-11-24,24,20,15,-100,-100,-100,0,0,100,0.00,40.00,0,-999,0,0.01
2013-11-25,31,19,6,-100,-100,-100,0,0,100,0.00,40.00,0,-999,0,0.01
2013-11-26,35,32,30,-100,-100,-100,0,0,100,0.00,40.00,0,-999,0,0.00
2013-11-27,37,35,31,-100,-100,-100,0,0,100,0.00,40.00,0,-999,0,1.29
2013-11-28,31,22,13,-100,-100,-100,0,0,100,0.00,40.00,0,-999,0,0.02
2013-11-29,24,16,9,-100,-100,-100,0,0,100,0.00,40.00,0,-999,0,0.00
2013-11-30,29,19,6,-100,-100,-100,0,0,100,0.00,40.00,0,-999,0,0.00
2013-12-1,39,33,26,-100,-100,-100,0,0,100,0.00,40.00,0,-999,0,0.05
2013-12-2,38,33,26,-100,-100,-100,0,0,100,0.00,40.00,0,-999,0,0.05
2013-12-3,41,34,28,-100,-100,-100,0,0,100,0.00,40.00,0,-999,0,0.00
2013-12-4,39,31,23,-100,-100,-100,0,0,100,0.00,40.00,0,-999,0,0.00
2013-12-5,53,42,26,-100,-100,-100,0,0,100,0.00,40.00,0,-999,0,0.00
2013-12-6,52,39,32,-100,-100,-100,0,0,100,0.00,40.00,0,-999,0,0.66
2013-12-7,32,31,26,-100,-100,-100,0,0,100,0.00,40.00,0,-999,0,0.02
2013-12-8,29,27,24,-100,-100,-100,0,0,100,0.00,40.00,0,-999,0,0.00
2013-12-9,35,30,26,-100,-100,-100,0,0,100,0.00,40.00,0,-999,0,0.02
2013-12-10,35,30,20,-100,-100,-100,0,0,100,0.00,40.00,0,-999,0,0.02
2013-12-11,29,22,14,-100,-100,-100,0,0,100,0.00,40.00,0,-999,0,0.00
2013-12-12,20,16,9,-100,-100,-100,0,0,100,0.00,40.00,0,-999,0,0.00
2013-12-13,19,15,4,-100,-100,-100,0,0,100,0.00,40.00,0,-999,0,0.00
2013-12-14,15,6,1,-100,-100,-100,0,0,100,0.00,40.00,0,-999,0,0.00
2013-12-15,23,20,12,-100,-100,-100,0,0,100,0.00,40.00,0,-999,0,0.00
2013-12-16,18,11,-2,-100,-100,-100,0,0,100,0.00,40.00,0,-999,0,0.00
2013-12-17,16,3,-15,-100,-100,-100,0,0,100,0.00,40.00,0,-999,0,0.00
2013-12-18,27,18,5,-100,-100,-100,0,0,100,0.00,40.00,0,-999,0,0.00
2013-12-19,35,30,23,-100,-100,-100,0,0,100,0.00,40.00,0,-999,0,0.00
2013-12-20,35,30,24,-100,-100,-100,0,0,100,0.00,40.00,0,-999,0,0.00
2013-12-21,45,32,24,-100,-100,-100,0,0,100,0.00,40.00,0,-999,0,0.49
2013-12-22,30,27,24,-100,-100,-100,0,0,100,0.00,40.00,0,-999,0,0.02
2013-12-23,32,30,28,-100,-100,-100,0,0,100,0.00,40.00,0,-999,0,0.00
2013-12-24,28,19,10,-100,-100,-100,0,0,100,0.00,40.00,0,-999,0,0.00
2013-12-25,13,8,3,-100,-100,-100,0,0,100,0.00,40.00,0,-999,0,0.00
2013-12-26,27,22,13,-100,-100,-100,0,0,100,0.00,40.00,0,-999,0,0.00
2013-12-27,29,24,16,-100,-100,-100,0,0,100,0.00,40.00,0,-999,0,0.00
2013-12-28,33,30,16,-100,-100,-100,0,0,100,0.00,40.00,0,-999,0,0.00
2013-12-29,36,33,30,-100,-100,-100,0,0,100,0.00,40.00,0,-999,0,0.05
2013-12-30,34,19,7,-100,-100,-100,0,0,100,0.00,40.00,0,-999,0,0.04
2013-12-31,14,10,6,-100,-100,-100,0,0,100,0.00,40.00,0,-999,0,0.01
2014-1-1,17,11,1,-100,-100,-100,0,0,100,0.00,40.00,0,-999,0,0.00
2014-1-2,1,-5,-10,-100,-100,-100,0,0,100,0.00,40.00,0,-999,0,0.00